[[{"header":{"parameterUnit":"m.s-1","parameterCategory":1,"la1":30.2991,"la2":30.254,"lo1":-89.0895,"lo2":-89.0444,"dy":0.0017,"dx":0.0017,"nx":28,"ny":28,"refTime":"2023-10-29T09:00:00:Z","depth":0,"parameterNumber":2,"parameterNumberName":"U-component_of_WINDS"},"data":[0,0,0,0,0,0,0,0,0,0,0,0,0,0,0,0,0,0,0,0,0,0,0,0,0,0,0,0,0,0,0,0,0,0,0,0,0,0,0,0,0,0,0,0,0,0,0,0,0,0,0,0,0,0,0,0,0,0,-0.709,-0.709,0,-0.7106,-0.7106,-0.7107,-0.7067,-0.7065,-0.7064,-0.7063,-0.7081,-0.7082,-0.7084,0,0,0,0,0,0,0,0,0,0,0,0,0,-0.7025,-0.7026,-0.709,-0.709,-0.709,-0.7106,-0.7106,-0.7107,-0.7067,-0.7065,-0.7064,-0.7062,-0.708,-0.7082,-0.7084,0,0,0,0,0,0,0,0,0,0,0,0,0,-0.7048,-0.7027,-0.709,-0.7072,-0.7071,-0.7106,-0.7106,-0.7107,-0.7067,-0.7065,-0.7063,-0.7062,-0.708,-0.7082,-0.7084,-0.7138,0,0,-0.7092,-0.7093,0,0,0,0,0,0,0,0,-0.7047,-0.7051,-0.7075,-0.7074,-0.7072,-0.7082,-0.709,-0.7117,-0.7068,-0.7069,-0.7063,-0.7061,-0.7083,-0.7085,-0.7092,-0.7139,-0.7139,-0.7092,-0.7094,-0.7095,-0.7096,0,0,0,0,0,0,0,-0.7046,-0.705,-0.7096,-0.7075,-0.7073,-0.7064,-0.7065,-0.7095,-0.7086,-0.7068,-0.7066,-0.7068,-0.7082,-0.709,-0.7092,-0.714,-0.7092,-0.7094,-0.7096,-0.7097,-0.7231,-0.7233,0,0,0,0,0,0,-0.7046,-0.7049,-0.7096,-0.7097,-0.7055,-0.7067,-0.7068,-0.7081,-0.7086,-0.7085,-0.707,-0.7066,-0.7087,-0.709,-0.7093,-0.7156,-0.7095,-0.7097,-0.7099,-0.7229,-0.7231,-0.7234,0,0,0,0,0,0,-0.7045,-0.7051,-0.7095,-0.7072,-0.7077,-0.707,-0.7085,-0.7082,-0.709,-0.7087,-0.7085,-0.7079,-0.7085,-0.7089,-0.7127,-0.7156,-0.7098,-0.71,-0.7226,-0.723,-0.7232,-0.7283,0,0,0,0,0,0,-0.7043,-0.705,-0.707,-0.7073,-0.7078,-0.7129,-0.7086,-0.7084,-0.7095,-0.709,-0.7096,-0.7095,-0.7084,-0.7123,-0.7129,-0.7158,-0.7102,-0.7224,-0.7228,-0.7231,-0.7278,-0.7287,-0.7295,0,0,0,0,0,-0.7041,-0.7084,-0.7072,-0.7078,-0.7103,-0.7131,-0.7134,-0.7121,-0.7097,-0.7117,-0.7115,-0.7094,-0.7152,-0.7128,-0.7134,-0.7164,-0.7222,-0.7227,-0.7231,-0.7275,-0.7285,-0.7294,0,0,0,0,0,0,-0.7086,-0.7084,-0.707,-0.7115,-0.7123,-0.7124,-0.7149,-0.7132,-0.7147,-0.7143,-0.7126,-0.7127,-0.7168,-0.717,-0.7143,-0.7216,-0.7183,-0.7189,-0.7214,-0.7224,-0.7232,-0.7231,-0.7104,0,0,0,0,0,-0.7101,-0.7123,-0.712,-0.716,-0.7165,-0.7156,-0.7168,-0.7157,-0.7165,-0.7168,-0.7168,-0.7177,-0.7197,-0.721,-0.7228,-0.7278,-0.7279,-0.7302,-0.731,-0.7317,-0.7323,-0.735,-0.736,-0.7249,-0.7249,-0.7249,0,0,-0.7132,-0.7134,-0.7149,-0.7169,-0.7174,-0.7198,-0.716,-0.7186,-0.7204,-0.7172,-0.7208,-0.7208,-0.7216,-0.7261,-0.728,-0.7263,-0.7353,-0.7323,-0.7328,-0.733,-0.7355,-0.7366,-0.7375,-0.7252,-0.7251,-0.7251,0,0,-0.7202,-0.7205,-0.7239,-0.7245,-0.7252,-0.7246,-0.7255,-0.7258,-0.7257,-0.7292,-0.7269,-0.7289,-0.7324,-0.7331,-0.7339,-0.7411,-0.7393,-0.7418,-0.746,-0.7487,-0.7496,-0.7503,-0.753,-0.7539,-0.7423,-0.7423,-0.7424,0,-0.724,-0.7274,-0.7259,-0.7287,-0.7297,-0.7269,-0.7303,-0.731,-0.7323,-0.7331,-0.7312,-0.7355,-0.7358,-0.7404,-0.7421,-0.7429,-0.7438,-0.7417,-0.7496,-0.7503,-0.751,-0.7535,-0.7545,-0.7426,-0.7426,-0.7426,-0.7426,0,-0.7321,-0.7346,-0.7372,-0.7386,-0.7398,-0.743,-0.7419,-0.7434,-0.7422,-0.7418,-0.7454,-0.7458,-0.7476,-0.7486,-0.7474,-0.753,-0.7519,-0.7498,-0.7465,-0.7524,-0.7547,-0.7557,-0.7431,-0.743,-0.7429,-0.7428,0,0,-0.742,-0.7424,-0.7435,-0.7441,-0.7447,-0.7466,-0.7496,-0.7513,-0.7527,-0.7537,-0.7562,-0.7592,-0.7572,-0.7582,-0.7571,-0.7594,-0.7651,-0.757,-0.757,-0.7585,-0.7714,-0.773,-0.7742,-0.7639,-0.7641,-0.7642,-0.7713,0,-0.7489,-0.7541,-0.7528,-0.7579,-0.7602,-0.7575,-0.7601,-0.7609,-0.7606,-0.7624,-0.7621,-0.7643,-0.7615,-0.762,-0.7642,-0.764,-0.7677,-0.7634,-0.7663,-0.7664,-0.7663,-0.7754,-0.7771,-0.7838,-0.7722,-0.7724,-0.7725,0,-0.7577,-0.7591,-0.7644,-0.7647,-0.7656,-0.768,-0.7696,-0.7714,-0.7721,-0.7717,-0.7728,-0.7712,-0.7742,-0.7708,-0.7749,-0.772,-0.7731,-0.7732,-0.7734,-0.7737,-0.7699,-0.776,-0.7859,-0.787,-0.7739,-0.7738,-0.7737,0,-0.7645,-0.7676,-0.7713,-0.7718,-0.7723,-0.774,-0.7743,-0.7748,-0.776,-0.7773,-0.7781,-0.7798,-0.7807,-0.7821,-0.781,-0.7786,-0.7854,-0.7818,-0.7852,-0.7852,-0.7868,-0.7868,-0.7972,-0.7874,-0.7874,-0.7874,-0.7873,0,-0.7724,-0.7758,-0.7743,-0.7766,-0.7803,-0.7787,-0.7825,-0.7824,-0.783,-0.7852,-0.783,-0.7851,-0.7836,-0.7856,-0.7848,-0.7884,-0.7888,-0.7886,-0.7884,-0.7889,-0.7889,-0.7896,-0.7892,-0.7876,-0.7876,-0.7875,-0.7875,0,-0.7806,-0.7797,-0.7835,-0.7836,-0.7837,-0.7865,-0.7866,-0.7887,-0.7882,-0.791,-0.7916,-0.7909,-0.7931,-0.7922,-0.7946,-0.794,-0.7987,-0.7978,-0.7984,-0.7982,-0.8017,-0.8015,-0.813,-0.8145,-0.8037,-0.8038,-0.8039,0,-0.7858,-0.7883,-0.7887,-0.79,-0.7904,-0.7926,-0.7937,-0.7923,-0.7936,-0.7947,-0.7967,-0.7987,-0.8003,-0.804,-0.8037,-0.8055,-0.8047,-0.8087,-0.805,-0.8054,-0.8049,-0.8048,-0.8051,-0.8094,-0.8096,-0.8097,-0.8097,0,-0.7951,-0.7945,-0.7962,-0.7979,-0.7993,-0.8006,-0.8016,-0.8028,-0.8014,-0.803,-0.8053,-0.8065,-0.8089,-0.811,-0.8126,-0.8129,-0.8112,-0.8109,-0.8118,-0.8124,-0.8127,-0.8126,-0.8005,-0.8106,-0.8106,-0.8105,-0.8104,-0.8104,-0.802,-0.8041,-0.8047,-0.8068,-0.8074,-0.8084,-0.8104,-0.8102,-0.812,-0.8139,-0.8129,-0.8156,-0.8162,-0.8182,-0.8188,-0.8208,-0.8193,-0.8206,-0.8209,-0.8213,-0.8218,-0.8123,-0.8211,-0.8211,-0.8211,-0.821,-0.821,0,-0.8112,-0.8114,-0.8133,-0.8148,-0.8165,-0.8146,-0.8156,-0.8171,-0.8195,-0.8203,-0.8219,-0.8245,-0.8265,-0.8264,-0.8282,-0.8299,-0.8292,-0.8305,-0.8304,-0.8305,-0.823,-0.8221,-0.8311,-0.8311,-0.8311,-0.8311,-0.8311,-0.8311,-0.8162,-0.8198,-0.8193,-0.8232,-0.8234,-0.826,-0.8267,-0.8277,-0.8283,-0.8313,-0.833,-0.8329,-0.8333,-0.8352,-0.837,-0.8369,-0.8377,-0.8393,-0.839,-0.832,-0.831,-0.8301,-0.8292,-0.8395,-0.8395,-0.8463,-0.8463,-0.8464]},{"header":{"parameterUnit":"m.s-1","parameterCategory":1,"la1":30.2991,"la2":30.254,"lo1":-89.0895,"lo2":-89.0444,"dy":0.0017,"dx":0.0017,"nx":28,"ny":28,"refTime":"2023-10-29T09:00:00:Z","depth":0,"parameterNumber":3,"parameterNumberName":"V-component_of_WINDS"},"data":[0,0,0,0,0,0,0,0,0,0,0,0,0,0,0,0,0,0,0,0,0,0,0,0,0,0,0,0,0,0,0,0,0,0,0,0,0,0,0,0,0,0,0,0,0,0,0,0,0,0,0,0,0,0,0,0,0,0,-1.1371,-1.1371,0,-1.1395,-1.1395,-1.1395,-1.1383,-1.1382,-1.1382,-1.1381,-1.1405,-1.1406,-1.1407,0,0,0,0,0,0,0,0,0,0,0,0,0,-1.1314,-1.1315,-1.1371,-1.1371,-1.1371,-1.1395,-1.1395,-1.1395,-1.1383,-1.1382,-1.1381,-1.1381,-1.1404,-1.1406,-1.1407,0,0,0,0,0,0,0,0,0,0,0,0,0,-1.1338,-1.1315,-1.1371,-1.1368,-1.1368,-1.1395,-1.1395,-1.1395,-1.1383,-1.1382,-1.1381,-1.138,-1.1404,-1.1406,-1.1408,-1.1438,0,0,-1.1413,-1.1414,0,0,0,0,0,0,0,0,-1.1337,-1.134,-1.1368,-1.1368,-1.1368,-1.1385,-1.1384,-1.141,-1.1383,-1.1377,-1.1381,-1.138,-1.1399,-1.1401,-1.1408,-1.1439,-1.144,-1.1413,-1.1414,-1.1415,-1.1416,0,0,0,0,0,0,0,-1.1335,-1.1339,-1.138,-1.1368,-1.1369,-1.1365,-1.1368,-1.1389,-1.1393,-1.1378,-1.1377,-1.138,-1.1399,-1.1406,-1.1408,-1.144,-1.1413,-1.1415,-1.1416,-1.1417,-1.1499,-1.15,0,0,0,0,0,0,-1.1334,-1.1338,-1.1379,-1.1381,-1.135,-1.1367,-1.137,-1.138,-1.1393,-1.1394,-1.1381,-1.1379,-1.1403,-1.1406,-1.1409,-1.1446,-1.1415,-1.1417,-1.1418,-1.1498,-1.1499,-1.15,0,0,0,0,0,0,-1.1332,-1.1337,-1.1378,-1.1359,-1.1364,-1.1369,-1.1381,-1.1381,-1.1389,-1.1395,-1.1396,-1.1387,-1.1403,-1.1406,-1.1431,-1.1447,-1.1418,-1.1419,-1.1496,-1.1498,-1.15,-1.152,0,0,0,0,0,0,-1.1331,-1.1337,-1.1349,-1.1359,-1.1365,-1.14,-1.1382,-1.1383,-1.1392,-1.139,-1.1401,-1.1402,-1.1402,-1.1428,-1.1433,-1.1449,-1.1421,-1.1495,-1.1497,-1.1499,-1.1518,-1.1522,-1.1526,0,0,0,0,0,-1.1329,-1.1353,-1.1349,-1.1354,-1.138,-1.1401,-1.1404,-1.1404,-1.1393,-1.1405,-1.1409,-1.1402,-1.1444,-1.1431,-1.1436,-1.1452,-1.1494,-1.1497,-1.1499,-1.1516,-1.1521,-1.1525,0,0,0,0,0,0,-1.1343,-1.1354,-1.135,-1.1379,-1.1389,-1.1399,-1.1414,-1.1409,-1.1422,-1.142,-1.1419,-1.1421,-1.1447,-1.1452,-1.1438,-1.1483,-1.1467,-1.1471,-1.1479,-1.1484,-1.1487,-1.1486,-1.1422,0,0,0,0,0,-1.135,-1.1367,-1.1375,-1.1399,-1.1405,-1.1409,-1.1418,-1.1417,-1.1427,-1.1431,-1.1437,-1.1448,-1.1464,-1.1474,-1.1488,-1.1518,-1.1521,-1.1532,-1.1536,-1.1539,-1.1542,-1.1559,-1.1565,-1.1508,-1.1508,-1.1508,0,0,-1.1364,-1.1372,-1.1382,-1.1403,-1.1411,-1.1428,-1.1412,-1.1431,-1.1444,-1.1434,-1.1458,-1.1463,-1.1475,-1.1502,-1.1515,-1.1507,-1.1559,-1.1542,-1.1545,-1.1546,-1.1562,-1.1568,-1.1572,-1.151,-1.151,-1.1509,0,0,-1.1398,-1.1405,-1.1427,-1.1435,-1.1447,-1.145,-1.1455,-1.1466,-1.1469,-1.1493,-1.1486,-1.1501,-1.1528,-1.1537,-1.1545,-1.1583,-1.1577,-1.1588,-1.1608,-1.1624,-1.1629,-1.1633,-1.1647,-1.1652,-1.1591,-1.1591,-1.1591,0,-1.1413,-1.1439,-1.1438,-1.1458,-1.1467,-1.146,-1.1481,-1.149,-1.1506,-1.1513,-1.1504,-1.1538,-1.1545,-1.1575,-1.1585,-1.1591,-1.1597,-1.1586,-1.1628,-1.1632,-1.1636,-1.1649,-1.1655,-1.1592,-1.1592,-1.1592,-1.1592,0,-1.1457,-1.1476,-1.1491,-1.1508,-1.1519,-1.154,-1.1542,-1.1554,-1.1552,-1.1555,-1.158,-1.1588,-1.1605,-1.1612,-1.161,-1.1642,-1.1637,-1.1628,-1.1613,-1.1643,-1.1655,-1.166,-1.1594,-1.1593,-1.1593,-1.1593,0,0,-1.1501,-1.1518,-1.1523,-1.1531,-1.1545,-1.1559,-1.1579,-1.1596,-1.1606,-1.1617,-1.1635,-1.1658,-1.165,-1.1659,-1.1658,-1.1673,-1.1703,-1.1662,-1.1663,-1.167,-1.174,-1.1746,-1.1752,-1.1699,-1.17,-1.1701,-1.1739,0,-1.1536,-1.1572,-1.1572,-1.1606,-1.1623,-1.1616,-1.1634,-1.1644,-1.1648,-1.1663,-1.1667,-1.1684,-1.1672,-1.1678,-1.1692,-1.1696,-1.1717,-1.1694,-1.1715,-1.1716,-1.1713,-1.1759,-1.1766,-1.1801,-1.1744,-1.1745,-1.1745,0,-1.1582,-1.1596,-1.1631,-1.1643,-1.165,-1.1666,-1.1682,-1.1696,-1.1708,-1.1709,-1.172,-1.1717,-1.1738,-1.1722,-1.1751,-1.1735,-1.1744,-1.1747,-1.1749,-1.1751,-1.1733,-1.1763,-1.1813,-1.1818,-1.1753,-1.1752,-1.1752,0,-1.1611,-1.1638,-1.1663,-1.167,-1.1684,-1.1696,-1.1702,-1.1713,-1.1723,-1.1737,-1.1743,-1.1759,-1.1768,-1.178,-1.1781,-1.1769,-1.1811,-1.1795,-1.1813,-1.1813,-1.1822,-1.1822,-1.1875,-1.1827,-1.1827,-1.1827,-1.1827,0,-1.165,-1.1672,-1.1676,-1.1692,-1.1716,-1.1716,-1.1741,-1.1746,-1.1756,-1.1772,-1.1767,-1.1782,-1.1783,-1.1799,-1.18,-1.1824,-1.1828,-1.183,-1.183,-1.1831,-1.183,-1.1837,-1.1834,-1.1829,-1.1828,-1.1828,-1.1828,0,-1.1687,-1.169,-1.1717,-1.1729,-1.1732,-1.175,-1.176,-1.1774,-1.1778,-1.1798,-1.1803,-1.1809,-1.1827,-1.183,-1.1851,-1.1852,-1.1881,-1.1878,-1.1877,-1.1877,-1.1896,-1.1894,-1.1955,-1.1963,-1.191,-1.191,-1.1911,0,-1.1712,-1.1729,-1.1743,-1.1753,-1.1761,-1.1778,-1.1789,-1.1789,-1.1801,-1.1816,-1.1829,-1.1847,-1.1861,-1.1891,-1.1896,-1.1913,-1.1911,-1.1931,-1.1913,-1.1914,-1.1912,-1.1911,-1.1913,-1.1934,-1.1935,-1.1935,-1.1936,0,-1.1757,-1.1758,-1.1774,-1.179,-1.1804,-1.1817,-1.1829,-1.1838,-1.184,-1.1853,-1.1872,-1.1884,-1.1906,-1.1924,-1.194,-1.1947,-1.1942,-1.1941,-1.1947,-1.1948,-1.1947,-1.1948,-1.1887,-1.194,-1.194,-1.1939,-1.1939,-1.1939,-1.1789,-1.1804,-1.1816,-1.1834,-1.1843,-1.1855,-1.187,-1.1876,-1.1891,-1.191,-1.1909,-1.193,-1.1942,-1.1964,-1.1971,-1.1988,-1.1981,-1.1989,-1.1991,-1.1993,-1.1995,-1.1944,-1.1991,-1.199,-1.199,-1.199,-1.199,0,-1.1834,-1.1841,-1.1858,-1.1876,-1.189,-1.1885,-1.1898,-1.191,-1.1929,-1.194,-1.1955,-1.1977,-1.1995,-1.2002,-1.202,-1.2031,-1.203,-1.2036,-1.2035,-1.2037,-1.1999,-1.1993,-1.2037,-1.2037,-1.2037,-1.2037,-1.2037,-1.2037,-1.1859,-1.1884,-1.1887,-1.1917,-1.1924,-1.1945,-1.1954,-1.1965,-1.1974,-1.1999,-1.2014,-1.2019,-1.2029,-1.2047,-1.2063,-1.2064,-1.2071,-1.2079,-1.208,-1.2044,-1.204,-1.2035,-1.2029,-1.208,-1.208,-1.2116,-1.2116,-1.2116]}]]